Stations météo

réclame
Mon MeteoGroup
Vlissingen, Pays-Bas (6310): Température de l'air & dewpoint: 17.02.2020 11:00:00 - 23.02.2020 11:00:00 (CET)Vlissingen, Pays-Bas (6310): Température de l'air 5cm: 17.02.2020 11:00:00 - 23.02.2020 11:00:00 (CET)Vlissingen, Pays-Bas (6310): Vitesse du vent & gusts: 17.02.2020 11:00:00 - 23.02.2020 11:00:00 (CET)Vlissingen, Pays-Bas (6310): Direction du vent: 17.02.2020 11:00:00 - 23.02.2020 11:00:00 (CET)Vlissingen, Pays-Bas (6310): reduced air pressure: 17.02.2020 11:00:00 - 23.02.2020 11:00:00 (CET)Vlissingen, Pays-Bas (6310): visibility: 17.02.2020 11:00:00 - 23.02.2020 11:00:00 (CET)Vlissingen, Pays-Bas (6310): Quantités de précipitations: 17.02.2020 11:00:00 - 23.02.2020 11:00:00 (CET)
Date & Time tt [°C] td [°C] tt 5cm [°C] ff [km/h] ff [knt] fx [km/h] fx [knt] dd ppp [hPa] vv [km] rr [mm]
23.02.2020 11:00:00 11,3 8,8 10,9 81 44 112 60 WSW 1009,8 6 0,0
23.02.2020 10:00:00 11,5 8,8 11,1 87 47 112 60 WSW 1009,4 6 0,0
23.02.2020 09:00:00 12,0 9,2 11,2 74 40 101 54 WSW 1009,9 10 0,0
23.02.2020 08:00:00 11,3 9,7 10,4 61 33 79 43 SW 1010,4 10 0,0
23.02.2020 07:00:00 10,1 9,4 9,5 54 29 72 39 SW 1012,0 3,7 0,6
23.02.2020 06:00:00 8,5 7,9 8,2 24 13 36 19 S 1014,0 2,1 2,1
23.02.2020 05:00:00 8,8 7,6 8,2 34 18 40 21 SW 1017,0 8 0,5
23.02.2020 04:00:00 8,9 7,6 8,4 37 20 47 25 SW 1018,4 5 0,8
23.02.2020 03:00:00 9,2 7,1 8,5 42 23 58 31 WSW 1019,8 6 0,1
23.02.2020 02:00:00 9,0 7,1 8,6 48 26 58 31 WSW 1020,6 6 0,0
23.02.2020 01:00:00 9,2 7,3 8,8 54 29 68 37 WSW 1020,9 6 0,0
23.02.2020 00:00:00 9,7 6,7 9,0 54 29 68 37 WSW 1020,9 8 0,0
22.02.2020 23:00:00 9,5 6,9 9,0 52 28 65 35 WSW 1021,1 7 0,0
22.02.2020 22:00:00 9,6 7,4 8,9 54 29 65 35 WSW 1020,5 6 0,0
22.02.2020 21:00:00 9,7 7,7 9,0 42 23 54 29 WSW 1020,9 6 0,0
22.02.2020 20:00:00 9,5 7,7 8,8 54 29 65 35 WSW 1020,8 5 0,5
22.02.2020 19:00:00 10,0 7,6 9,5 54 29 68 37 WSW 1020,4 6 0,0
22.02.2020 18:00:00 10,2 7,9 9,8 46 25 61 33 WSW 1019,4 9 0,0
22.02.2020 17:00:00 10,5 8,4 10,1 55 30 68 37 WSW 1018,8 10 0,0
22.02.2020 16:00:00 10,3 8,1 10,1 54 29 68 37 SW 1018,7 9 0,0
22.02.2020 15:00:00 10,4 8,5 10,3 57 31 76 41 WSW 1018,5 8 0,0
22.02.2020 14:00:00 10,0 8,3 9,7 52 28 68 37 SW 1019,0 8 0,0
22.02.2020 13:00:00 9,5 8,1 9,1 54 29 72 39 SW 1018,7 6 0,0
22.02.2020 12:00:00 9,6 6,9 9,2 57 31 79 43 SW 1018,2 9 0,0
22.02.2020 11:00:00 9,1 6,1 8,7 59 32 72 39 SW 1017,7 10 0,0
22.02.2020 10:00:00 8,3 4,8 7,7 48 26 65 35 SW 1017,6 10 0,0
22.02.2020 09:00:00 7,5 3,7 6,8 55 30 68 37 SW 1017,6 10 0,0
22.02.2020 08:00:00 7,5 3,0 7,0 54 29 68 37 SW 1017,5 10 0,0
22.02.2020 07:00:00 7,7 3,0 7,0 46 25 61 33 SW 1018,0 10 0,0
22.02.2020 06:00:00 7,3 3,7 6,7 48 26 61 33 SSW 1018,0 10 0,0
22.02.2020 05:00:00 7,2 4,3 6,6 42 23 54 29 SSW 1018,3 10 0,0
22.02.2020 04:00:00 7,4 4,6 6,9 44 24 58 31 SSW 1018,9 10 0,0
22.02.2020 03:00:00 7,7 4,8 7,1 41 22 50 27 SSW 1019,2 10 0,0
22.02.2020 02:00:00 8,5 4,8 7,9 47 25 58 31 SW 1019,9 16 0,0
22.02.2020 01:00:00 8,1 4,5 7,6 43 23 58 31 SW 1021,0 11 0,0
22.02.2020 00:00:00 8,4 4,5 7,8 43 23 61 33 SW 1021,1 16 0,0
21.02.2020 23:00:00 8,5 4,4 8,0 42 23 54 29 SW 1021,8 10 0,0
21.02.2020 22:00:00 8,7 4,6 8,1 46 25 58 31 SW 1022,1 10 0,0
21.02.2020 21:00:00 8,5 4,6 7,9 42 23 58 31 SSW 1022,8 10 0,0
21.02.2020 20:00:00 8,6 4,4 8,1 42 23 54 29 SW 1023,5 10 0,0
21.02.2020 19:00:00 8,6 4,4 8,0 43 23 50 27 SW 1023,5 16 0,0
21.02.2020 18:00:00 8,8 4,5 8,2 39 21 54 29 SW 1023,5 10 0,0
21.02.2020 17:00:00 8,8 4,8 8,2 39 21 54 29 SW 1023,6 10 0,0
21.02.2020 16:00:00 8,8 4,8 8,3 43 23 58 31 SW 1024,0 14 0,0
21.02.2020 15:00:00 8,7 5,1 8,6 44 24 58 31 SW 1024,2 10 0,0
21.02.2020 14:00:00 8,7 5,2 9,0 42 23 50 27 SW 1024,7 10 0,0
21.02.2020 13:00:00 8,5 4,8 8,6 41 22 50 27 SW 1025,4 10 0,0
21.02.2020 12:00:00 8,3 4,4 8,4 37 20 47 25 SW 1025,4 10 0,0
21.02.2020 11:00:00 7,6 4,2 7,8 35 19 43 23 SW 1025,4 10 0,0
21.02.2020 10:00:00 6,1 3,5 5,6 29 16 36 19 SW 1025,0 13 0,0
21.02.2020 09:00:00 5,1 2,8 4,7 28 15 36 19 SSW 1025,1 10 0,0
21.02.2020 08:00:00 5,2 2,6 3,9 29 16 36 19 SW 1024,4 13 0,0
21.02.2020 07:00:00 6,2 2,7 5,9 32 18 50 27 WSW 1024,0 12 0,0
21.02.2020 06:00:00 7,0 2,6 6,0 37 20 50 27 W 1023,4 10 0,0
21.02.2020 05:00:00 7,0 2,2 5,7 35 19 50 27 W 1023,0 10 0,0
21.02.2020 04:00:00 6,8 1,4 5,8 35 19 54 29 W 1022,4 10 0,0
21.02.2020 03:00:00 6,7 1,3 5,5 36 19 58 31 W 1021,6 12 0,0
21.02.2020 02:00:00 6,9 1,1 5,9 39 21 58 31 W 1020,9 10 0,0
21.02.2020 01:00:00 7,0 -0,5 5,7 41 22 58 31 W 1019,8 10 0,0
21.02.2020 00:00:00 6,9 0,3 5,7 39 21 58 31 W 1019,1 10 0,0
20.02.2020 23:00:00 7,1 -0,4 6,0 44 24 65 35 WNW 1017,6 10 0,0
20.02.2020 22:00:00 7,1 0,5 5,6 46 25 65 35 WNW 1016,1 10 0,0
20.02.2020 21:00:00 5,2 0,8 3,6 29 16 72 39 WNW 1014,8 24 0,4
20.02.2020 20:00:00 7,0 3,5 5,7 35 19 54 29 WNW 1012,6 10 0,5
20.02.2020 19:00:00 6,5 4,0 5,6 37 20 68 37 WNW 1011,4 8 1,6
20.02.2020 18:00:00 7,4 6,6 7,4 44 24 68 37 SW 1008,6 4,3 4,0
20.02.2020 17:00:00 8,7 7,7 8,4 48 26 61 33 SSW 1007,6 3,6 0,8
20.02.2020 16:00:00 10,0 6,4 9,5 50 27 65 35 SSW 1008,1 10 0,0
20.02.2020 15:00:00 10,5 6,0 10,3 50 27 65 35 SSW 1008,9 24 0,0
20.02.2020 14:00:00 10,4 5,8 9,6 41 22 58 31 SSW 1009,9 10 0,0
20.02.2020 13:00:00 9,8 5,9 9,7 43 23 61 33 SSW 1010,9 19 0,0
20.02.2020 12:00:00 8,8 6,3 9,0 44 24 54 29 SSW 1012,4 10 0,0
20.02.2020 11:00:00 8,1 6,5 8,0 42 23 54 29 SSW 1013,1 10 0,0
20.02.2020 10:00:00 8,5 5,9 8,1 42 23 54 29 SSW 1013,5 10 0,0
20.02.2020 09:00:00 8,4 5,7 7,9 35 19 50 27 SSW 1013,7 10 0,0
20.02.2020 08:00:00 8,3 5,8 7,7 34 18 43 23 SSW 1013,9 10 0,0
20.02.2020 07:00:00 8,3 6,2 7,7 37 20 47 25 SSW 1014,1 10 0,0
20.02.2020 06:00:00 8,3 6,3 7,7 34 18 43 23 SSW 1014,4 10 0,0
20.02.2020 05:00:00 8,0 6,6 7,5 37 20 47 25 SSW 1014,6 8 0,0
20.02.2020 04:00:00 8,3 6,4 7,7 37 20 50 27 SSW 1015,0 10 0,0
20.02.2020 03:00:00 8,1 6,3 7,4 35 19 43 23 SSW 1015,7 10 0,0
20.02.2020 02:00:00 8,0 6,4 7,3 37 20 47 25 SSW 1016,1 10 0,0
20.02.2020 01:00:00 7,9 6,6 7,2 39 21 47 25 SSW 1016,7 10 0,1
20.02.2020 00:00:00 7,4 6,4 7,0 32 18 40 21 SSW 1017,4 7 0,2
19.02.2020 23:00:00 7,3 6,1 6,7 36 19 47 25 SSW 1017,9 12 0,0
19.02.2020 22:00:00 6,9 5,6 6,4 37 20 47 25 SSW 1018,3 10 0,1
19.02.2020 21:00:00 6,6 5,2 6,1 36 19 47 25 S 1019,0 14 0,1
19.02.2020 20:00:00 6,5 4,8 6,0 32 18 36 19 SSW 1019,9 19 0,0
19.02.2020 19:00:00 6,7 4,1 6,2 29 16 40 21 SW 1020,3 10 0,0
19.02.2020 18:00:00 7,4 3,8 6,9 44 24 50 27 WSW 1020,4 10 0,0
19.02.2020 17:00:00 7,5 3,0 7,0 34 18 40 21 SW 1020,7 10 0,0
19.02.2020 16:00:00 7,3 2,0 6,9 37 20 47 25 WSW 1021,1 10 0,0
19.02.2020 15:00:00 7,1 2,2 7,1 37 20 47 25 WSW 1021,5 10 0,0
19.02.2020 14:00:00 7,1 2,6 7,1 37 20 47 25 W 1021,6 10 0,0
19.02.2020 13:00:00 6,8 2,2 6,8 37 20 50 27 W 1021,5 10 0,0
19.02.2020 12:00:00 7,2 2,3 6,6 34 18 47 25 W 1021,0 10 0,0
19.02.2020 11:00:00 7,1 1,4 6,7 39 21 54 29 W 1020,7 10 0,0
19.02.2020 10:00:00 6,5 0,9 6,0 39 21 58 31 W 1020,0 10 0,0
19.02.2020 09:00:00 6,2 0,5 5,5 29 16 50 27 W 1019,7 10 0,0
19.02.2020 08:00:00 6,1 0,4 5,2 34 18 47 25 W 1018,8 10 0,0
19.02.2020 07:00:00 6,1 0,7 5,2 36 19 61 33 W 1017,9 20 0,0
19.02.2020 06:00:00 6,4 0,7 5,6 37 20 58 31 WNW 1017,1 10 0,0
19.02.2020 05:00:00 6,5 0,7 5,6 35 19 58 31 WNW 1015,7 10 0,0
19.02.2020 04:00:00 6,7 1,4 5,7 31 17 61 33 WNW 1015,2 10 0,0
19.02.2020 03:00:00 6,8 1,7 5,9 43 23 61 33 W 1013,9 24 0,0
19.02.2020 02:00:00 7,8 3,7 6,9 42 23 61 33 W 1013,3 10 0,0
19.02.2020 01:00:00 7,9 4,6 6,9 46 25 61 33 W 1012,6 10 0,1
19.02.2020 00:00:00 6,6 5,0 5,9 44 24 65 35 SW 1013,3 8 3,3
18.02.2020 23:00:00 6,8 5,7 6,4 35 19 76 41 WSW 1013,9 2,8 4,7
18.02.2020 22:00:00 7,6 5,0 6,9 50 27 61 33 SSW 1015,0 10 0,1
18.02.2020 21:00:00 7,7 4,6 7,0 54 29 65 35 SW 1015,9 10 0,0
18.02.2020 20:00:00 8,0 5,0 7,5 48 26 58 31 SW 1017,1 10 0,0
18.02.2020 19:00:00 8,2 4,7 7,6 44 24 58 31 SW 1017,7 10 0,0
18.02.2020 18:00:00 8,4 4,3 7,7 48 26 58 31 SW 1018,1 10 0,0
18.02.2020 17:00:00 9,1 3,7 8,4 46 25 58 31 SW 1018,9 10 0,0
18.02.2020 16:00:00 9,2 3,4 8,5 48 26 61 33 SW 1019,5 10 0,0
18.02.2020 15:00:00 9,3 4,5 9,2 47 25 58 31 WSW 1019,8 11 0,0
18.02.2020 14:00:00 8,8 3,6 9,0 48 26 61 33 WSW 1020,4 10 0,0
18.02.2020 13:00:00 8,5 3,7 8,5 48 26 61 33 WSW 1020,7 10 0,0
18.02.2020 12:00:00 8,1 4,6 7,9 41 22 50 27 SW 1021,2 10 0,0
18.02.2020 11:00:00 7,6 4,6 - 36 19 47 25 SW 1021,3 13 0,0
18.02.2020 10:00:00 6,8 4,1 6,7 34 18 - - SW 1021,2 10 0,0
18.02.2020 09:00:00 5,7 3,4 5,3 31 17 36 19 SSW 1021,1 10 0,0
18.02.2020 08:00:00 5,5 3,1 4,7 34 18 36 19 SW 1020,6 10 0,0
18.02.2020 07:00:00 6,1 3,4 - 32 18 43 23 SW 1020,1 11 0,0
18.02.2020 06:00:00 6,3 3,1 - 35 19 43 23 SW 1019,8 10 0,0
18.02.2020 05:00:00 7,4 3,3 6,5 42 23 58 31 WSW 1019,2 10 0,0
18.02.2020 04:00:00 7,3 2,2 - 43 23 - - W 1019,0 13 0,0
18.02.2020 03:00:00 7,4 3,0 6,5 50 27 65 35 WSW 1018,5 10 0,0
18.02.2020 02:00:00 7,8 3,9 7,1 52 28 61 33 WSW 1017,9 10 0,0
18.02.2020 01:00:00 7,8 4,9 7,3 39 21 54 29 SW 1017,2 10 0,0
18.02.2020 00:00:00 7,8 4,7 7,0 43 23 58 31 SW 1016,3 8 0,0
17.02.2020 23:00:00 8,0 5,3 7,2 46 25 61 33 SW 1015,5 9 0,0
17.02.2020 22:00:00 8,4 5,7 7,6 50 27 61 33 WSW 1014,7 8 0,0
17.02.2020 21:00:00 8,5 5,8 7,6 46 25 61 33 WSW 1013,9 8 0,0
17.02.2020 20:00:00 8,3 4,8 7,1 42 23 58 31 SW 1013,5 10 0,0
17.02.2020 19:00:00 8,1 5,8 7,4 42 23 50 27 SW 1012,6 10 0,0
17.02.2020 18:00:00 8,0 5,5 7,4 42 23 50 27 SW 1012,0 10 0,0
17.02.2020 17:00:00 7,5 5,3 7,1 43 23 50 27 SW 1011,4 13 0,0
17.02.2020 16:00:00 8,1 4,2 7,0 48 26 61 33 SW 1011,1 10 0,4
17.02.2020 15:00:00 8,7 4,4 8,1 48 26 68 37 SW 1010,5 10 0,0
17.02.2020 14:00:00 8,3 5,0 8,6 39 21 50 27 SW 1010,9 10 0,0
17.02.2020 13:00:00 7,2 3,8 5,9 68 37 90 49 WSW 1011,1 7 1,0
17.02.2020 12:00:00 5,9 3,9 5,2 61 33 90 49 SW 1011,4 7 0,5
17.02.2020 11:00:00 8,9 4,8 8,4 43 23 54 29 SSW 1010,4 16 0,0

tt = Température de l'air
td = dewpoint
tt 5cm = Température de l'air 5cm
ff = Vitesse du vent
fx = gusts
dd = Direction du vent
ppp = reduced air pressure
vv = visibility
rr = Quantités de précipitations

stations d'obs. à proximité